[Date Prev][Date Next][Thread Prev][Thread Next] - [Date Index][Thread Index][Author Index]
2 Line ISS Keps 11-30
- Subject: [sarex] 2 Line ISS Keps 11-30
- From: "Dave Larsen Ph.D." <doc@xxxxxxxxxxx>
- Date: Sat, 30 Nov 2002 04:12:11 -0800
ISS
1 25544U 98067A 02334.12246693 .00041252 00000-0 54154-3 0 4288
2 25544 51.6365 299.7849 0007744 197.9542 267.5752 15.58075066229858
----
Via the sarex mailing list at AMSAT.ORG courtesy of AMSAT-NA.
To unsubscribe, send "unsubscribe sarex" to Majordomo@amsat.org
AMSAT Home